This demonstration page uses our WeatherBlox Daily Observations layout. Learn more.

Left ArrowRight Arrow

39.51506, -84.39828

Hourly Observations for October 14, 2018

Temp ( °F °C ) Dew Point ( °F °C ) Humidity (%) Winds ( mph kmh ) Pressure ( in mb ) Visibility ( mi km ) Precip ( " mm )
12:15 am 00:15 Clear 46 7.6 39 3.9 78 78 SSE 6 9 30.12 1020 10 16.0934 0 0
12:35 am 00:35 Clear 46 7.7 39 4 78 78 S 7 11 30.12 1020 10 16.0934 0 0
12:55 am 00:55 Clear 46 7.6 40 4.2 79 79 SSW 3 6 30.12 1020 10 16.0934 0 0
1:15 am 01:15 Clear 46 7.7 40 4.2 79 79 SE 3 6 30.12 1020 10 16.0934 0 0
1:35 am 01:35 Clear 46 7.8 39 4 77 77 SE 5 7 30.12 1020 10 16.0934 0 0
1:55 am 01:55 Mostly Cloudy 46 7.6 40 4.4 80 80 E 3 6 30.09 1019 10 16.0934 0 0
2:15 am 02:15 Clear 46 7.5 40 4.5 81 81 E 5 7 30.09 1019 10 16.0934 0 0
2:35 am 02:35 Clear 46 7.5 40 4.5 81 81 E 3 6 30.09 1019 10 16.0934 0 0
2:55 am 02:55 Partly Cloudy 46 7.5 40 4.6 82 82 Calm 30.09 1019 10 16.0934 0 0
3:15 am 03:15 Mostly Cloudy 46 7.7 40 4.5 80 80 Calm 30.09 1019 10 16.0934 0 0
3:35 am 03:35 Partly Cloudy 46 7.7 41 4.8 82 82 Calm 30.09 1019 10 16.0934 0 0
3:55 am 03:55 Cloudy 46 7.7 40 4.6 81 81 E 3 6 30.09 1019 10 16.0934 0 0
4:15 am 04:15 Cloudy 46 7.7 41 4.8 82 82 SE 3 6 30.09 1019 10 16.0934 0 0
4:35 am 04:35 Cloudy with Light Rain 46 7.8 41 4.9 82 82 Calm 30.09 1019 10 16.0934 0 0
4:55 am 04:55 Cloudy with Light Rain 46 7.7 42 5.3 85 85 SE 3 6 30.12 1020 10 16.0934 0 0
5:15 am 05:15 Cloudy with Light Rain 46 7.5 42 5.4 87 87 ESE 5 7 30.12 1020 10 16.0934 0.01 0.254
5:35 am 05:35 Cloudy with Light Rain 45 7.4 43 5.9 90 90 Calm 30.09 1019 10 16.0934 0.02 0.508
5:55 am 05:55 Cloudy with Light Rain 45 7.3 43 5.9 91 91 E 3 6 30.12 1020 10 16.0934 0.02 0.508
6:15 am 06:15 Cloudy with Light Rain 45 7.3 43 5.9 91 91 Calm 30.12 1020 7 11.26538 0.02 0.508
6:35 am 06:35 Cloudy with Light Rain 45 7.3 43 6 92 92 E 3 6 30.12 1020 7 11.26538 0.02 0.508
6:55 am 06:55 Cloudy with Rain 45 7.2 44 6.4 95 95 E 3 6 30.12 1020 5 8.0467 0.04 1.016
7:15 am 07:15 Cloudy with Light Rain 45 7.2 43 6.2 93 93 Calm 30.12 1020 10 16.0934 0.01 0.254
7:35 am 07:35 Cloudy 45 7.3 43 6.3 93 93 ENE 3 6 30.12 1020 10 16.0934 0.01 0.254
7:55 am 07:55 Cloudy with Light Rain 45 7.3 43 6.3 93 93 Calm 30.12 1020 10 16.0934 0.01 0.254
8:15 am 08:15 Cloudy with Light Rain 45 7.4 44 6.4 93 93 Calm 30.12 1020 10 16.0934 0 0
8:35 am 08:35 Cloudy 46 7.5 43 6.2 92 92 Calm 30.15 1021 10 16.0934 0 0
8:55 am 08:55 Cloudy with Light Rain 46 7.8 44 6.6 92 92 E 3 6 30.12 1020 10 16.0934 0 0
9:15 am 09:15 Cloudy 46 8 44 6.7 92 92 ESE 3 6 30.15 1021 10 16.0934 0 0
9:35 am 09:35 Cloudy 47 8.2 44 6.8 91 91 E 3 6 30.15 1021 10 16.0934 0 0
9:55 am 09:55 Cloudy 47 8.6 45 7 90 90 ESE 5 7 30.15 1021 10 16.0934 0 0
10:15 am 10:15 Cloudy 48 9 45 7.2 89 89 E 3 6 30.12 1020 10 16.0934 0 0
10:35 am 10:35 Cloudy 49 9.5 46 7.8 89 89 Calm 30.12 1020 10 16.0934 0 0
10:55 am 10:55 Cloudy 50 9.8 45 7.4 85 85 E 5 7 30.12 1020 10 16.0934 0 0
11:15 am 11:15 Cloudy 52 11.2 47 8.2 82 82 ESE 5 7 30.12 1020 10 16.0934 0 0
11:35 am 11:35 Cloudy 51 10.7 46 7.7 82 82 Calm 30.12 1020 10 16.0934 0 0
11:55 am 11:55 Mostly Cloudy 52 11.3 46 8 80 80 E 6 9 30.12 1020 10 16.0934 0 0
12:15 pm 12:15 Cloudy 53 11.9 47 8.3 79 79 ESE 5 7 30.12 1020 10 16.0934 0 0
12:35 pm 12:35 Cloudy 53 11.9 47 8.2 78 78 E 7 11 30.12 1020 10 16.0934 0 0
12:55 pm 12:55 Cloudy 54 12.1 47 8.6 79 79 SE 5 7 30.09 1019 10 16.0934 0 0
1:15 pm 13:15 Cloudy 55 12.7 48 8.9 78 78 E 7 11 30.09 1019 10 16.0934 0 0
1:35 pm 13:35 Cloudy 55 12.8 48 8.7 76 76 SE 6 9 30.09 1019 10 16.0934 0 0
1:55 pm 13:55 Cloudy 55 12.7 47 8.6 76 76 SE 7 11 30.06 1018 10 16.0934 0 0
2:15 pm 14:15 Cloudy 54 12.3 48 8.7 79 79 SSE 9 15 30.06 1018 10 16.0934 0 0
2:35 pm 14:35 Cloudy 54 12.2 48 8.8 80 80 SE 9 15 30.06 1018 10 16.0934 0 0
2:55 pm 14:55 Cloudy 54 12.2 49 9.2 82 82 SE 8 13 30.06 1018 10 16.0934 0 0
3:15 pm 15:15 Cloudy 54 12.3 49 9.4 83 83 SE 7 11 30.03 1017 10 16.0934 0 0
3:35 pm 15:35 Cloudy 54 12 49 9.6 85 85 SE 9 15 30.03 1017 10 16.0934 0 0
3:55 pm 15:55 Cloudy with Mist and Fog 53 11.6 50 10.1 91 91 ESE 7 11 30.03 1017 5 8.0467 0 0
4:15 pm 16:15 Cloudy with Drizzle 53 11.6 51 10.6 94 94 E 5 7 30.03 1017 2.5 4.02335 0 0
4:35 pm 16:35 Cloudy with Light Rain 53 11.4 51 10.6 95 95 E 6 9 30.03 1017 2 3.21868 0.01 0.254
4:55 pm 16:55 Cloudy with Mist and Fog 53 11.5 51 10.8 96 96 ESE 5 7 30.03 1017 7 11.26538 0.01 0.254
5:15 pm 17:15 Cloudy with Mist and Fog 53 11.6 52 11 96 96 ENE 7 11 30.03 1017 2.5 4.02335 0 0
5:35 pm 17:35 Cloudy with Mist and Fog 53 11.5 51 10.7 95 95 E 7 11 30.03 1017 3.5 5.63269 0 0
5:55 pm 17:55 Cloudy with Light Rain 53 11.4 51 10.8 96 96 E 6 9 30 1016 1.75 2.816345 0 0
6:15 pm 18:15 Cloudy with Drizzle 53 11.4 52 11 97 97 E 3 6 30 1016 2.5 4.02335 0 0
6:35 pm 18:35 Cloudy with Drizzle 53 11.4 52 10.9 97 97 E 5 7 30.03 1017 1.75 2.816345 0 0
6:55 pm 18:55 Cloudy with Drizzle 53 11.4 52 11 97 97 E 3 6 30.03 1017 2 3.21868 0 0
7:15 pm 19:15 Cloudy with Drizzle 53 11.5 52 11 97 97 E 3 6 30 1016 3 4.82802 0 0
7:35 pm 19:35 Cloudy with Mist and Fog 53 11.4 52 11 97 97 E 3 6 30.03 1017 2.5 4.02335 0 0
7:55 pm 19:55 Cloudy with Mist and Fog 53 11.5 52 11 97 97 E 3 6 30.03 1017 3 4.82802 0 0
8:15 pm 20:15 Cloudy with Mist and Fog 53 11.5 52 11.1 97 97 Calm 30 1016 3.5 5.63269 0 0
8:35 pm 20:35 Cloudy with Mist and Fog 53 11.5 52 11.1 97 97 E 3 6 30 1016 3 4.82802 0 0
8:55 pm 20:55 Cloudy with Mist and Fog 53 11.5 52 11.1 97 97 E 3 6 30 1016 2.5 4.02335 0 0
9:15 pm 21:15 Cloudy with Mist and Fog 53 11.5 52 11.1 97 97 Calm 30 1016 2 3.21868 0 0
9:35 pm 21:35 Cloudy with Mist and Fog 53 11.7 52 11.3 97 97 Calm 30 1016 2.5 4.02335 0 0
9:55 pm 21:55 Cloudy with Mist and Fog 53 11.6 52 11.3 98 98 Calm 30 1016 2 3.21868 0 0
10:15 pm 22:15 Cloudy with Drizzle 53 11.7 53 11.4 98 98 Calm 30 1016 2 3.21868 0 0
10:35 pm 22:35 Cloudy with Mist and Fog 53 11.7 53 11.4 98 98 Calm 30 1016 2.5 4.02335 0 0
10:55 pm 22:55 Cloudy with Mist and Fog 53 11.9 53 11.6 98 98 Calm 30 1016 1.75 2.816345 0 0
11:15 pm 23:15 Cloudy with Mist and Fog 54 12 53 11.7 98 98 Calm 30 1016 2 3.21868 0 0
11:35 pm 23:35 Cloudy with Mist and Fog 54 12 53 11.8 99 99 Calm 30 1016 2.5 4.02335 0 0
11:55 pm 23:55 Cloudy with Mist and Fog 54 12.1 53 11.8 98 98 Calm 30 1016 4 6.43736 0 0

Powered by AerisWeather